Theta_e
322 321 320 320 320 321 321 322 322 323 324 324 325 326 326 327 325 328 328 325 333 349 341 333 337 337 336 334 335 339 325 319 322 323 326 332 330 336 339 335 338 341 337 342 345
322 321 320 320 320 321 321 321 322 322 323 323 324 325 327 327 325 325 331 355 352 351 329 331 330 333 328 330 332 325 323 321 326 328 329 331 332 333 333 333 333 332 340 344 344
321 321 320 320 320 321 321 321 321 321 321 322 323 325 327 327 323 325 350 350 351 343 332 333 332 332 325 328 326 325 320 326 327 328 332 330 332 334 331 329 334 324 331 341 341
320 319 320 319 320 320 320 320 320 320 320 321 323 326 327 325 313 328 350 354 354 332 331 330 329 325 321 320 326 320 323 325 327 330 330 329 333 332 332 335 340 339 341 342 340
318 318 318 319 319 319 319 320 319 319 320 321 323 326 326 321 321 330 356 351 334 328 327 327 326 324 320 321 323 319 321 326 327 328 328 330 330 329 331 336 338 342 343 341 340
317 317 318 318 318 319 319 319 319 319 320 322 324 326 325 314 327 333 334 334 330 327 328 329 327 327 323 321 320 322 323 323 324 323 327 323 327 330 331 337 337 338 339 340 340
317 317 317 317 318 319 318 318 318 319 320 323 325 327 320 318 325 328 330 328 328 329 327 329 329 327 326 321 324 322 319 323 321 320 321 322 322 325 331 333 335 336 338 339 340
317 317 317 317 318 318 317 317 317 319 321 324 327 325 318 325 326 324 329 328 328 330 328 329 330 327 325 325 322 319 320 315 320 319 319 320 315 329 333 332 332 334 336 338 339
317 317 317 317 317 317 317 316 318 322 325 327 325 322 317 325 317 322 329 325 326 326 326 327 326 322 323 318 315 318 312 314 314 320 317 317 314 323 331 331 330 333 335 337 338
317 317 316 316 317 316 316 315 323 321 326 327 325 319 322 317 319 323 329 327 323 322 320 319 318 316 317 315 307 311 312 313 312 316 316 314 315 319 329 328 328 332 335 336 337
317 317 317 316 316 316 315 322 318 318 324 318 317 319 318 322 324 322 326 323 323 320 313 316 311 310 314 317 317 315 311 310 315 317 314 314 315 316 321 324 326 329 333 335 336
317 317 316 316 316 315 315 321 321 324 316 321 320 319 322 324 317 321 326 318 317 312 315 313 310 315 317 316 314 312 309 310 315 316 315 315 314 318 320 320 324 328 329 334 337
316 316 316 316 315 313 318 320 327 326 318 320 319 317 319 322 318 319 322 320 316 313 313 311 314 316 314 312 311 310 308 310 311 314 315 315 313 317 320 322 324 325 330 332 337
316 315 315 314 309 321 318 326 328 325 313 314 316 318 321 321 317 325 325 320 317 312 314 312 316 313 310 309 310 307 315 313 312 309 306 314 305 317 318 319 321 323 326 328 333
315 314 314 311 318 323 326 328 325 325 303 316 317 326 323 317 320 319 325 320 314 313 313 311 311 310 309 311 313 309 315 314 313 310 310 311 308 314 318 316 319 323 325 328 333
313 313 313 314 318 327 330 328 324 310 303 313 318 316 315 317 319 320 318 322 321 315 314 313 318 314 313 315 315 316 313 313 313 311 304 310 307 310 313 316 319 323 324 329 331
312 311 312 324 325 331 330 323 309 305 318 312 312 315 315 314 315 315 313 312 311 309 310 313 314 316 316 312 316 313 310 304 303 305 302 311 308 312 317 319 321 323 325 328 330
310 309 313 322 329 329 326 315 305 311 312 317 316 314 312 314 315 315 314 311 316 315 312 309 307 315 318 314 312 313 311 305 300 301 304 313 306 310 318 321 323 326 327 329 330
308 318 325 325 326 329 320 308 308 315 316 314 315 311 312 314 314 314 313 314 316 317 311 310 310 317 317 317 316 313 310 315 308 309 304 308 311 317 318 319 322 324 329 329 330
323 325 325 330 330 325 316 306 314 320 319 317 310 314 310 312 311 312 313 316 315 318 320 315 309 317 317 318 317 314 316 307 309 302 301 307 309 310 315 317 321 323 325 330 334
321 324 328 331 329 320 311 313 317 321 320 316 314 313 314 313 313 313 314 317 318 317 319 316 312 312 317 313 312 313 311 313 312 310 304 301 305 318 318 321 322 325 330 332 335
325 320 328 330 316 316 312 317 310 318 319 319 320 317 315 315 313 313 313 315 319 318 312 316 313 308 311 316 318 317 314 314 307 305 307 307 307 321 317 324 328 329 332 335 337
326 322 327 326 311 312 317 317 318 317 317 317 316 318 320 316 312 315 316 318 318 316 313 314 310 303 305 311 314 311 314 314 314 312 308 303 306 321 323 325 328 331 333 336 337
325 315 318 319 320 318 315 315 313 318 318 319 318 319 317 315 316 313 314 317 317 315 323 317 308 305 300 305 309 307 309 311 310 305 305 305 307 316 317 318 324 331 333 334 336
325 320 320 311 314 317 318 316 314 313 318 319 316 316 314 311 313 312 314 314 315 316 314 310 305 308 308 308 308 306 306 306 305 306 302 304 305 310 321 324 327 330 332 332 332
320 320 323 320 320 317 311 314 314 315 315 314 313 315 314 311 312 310 312 312 311 315 312 314 306 308 305 308 308 305 308 307 307 306 306 306 306 322 324 326 326 326 327 327 328
320 324 322 316 317 315 316 315 314 316 316 317 316 314 312 314 316 315 314 314 313 311 310 310 307 306 301 307 307 302 307 309 309 310 309 306 316 320 319 320 321 322 324 324 325
Wind_Speed
11 10 11 11 11 11 12 13 13 14 14 16 16 16 16 17 22 8 10 2 3 6 8 16 18 15 13 3 2 11 1 8 9 8 7 1 1 1 7 3 5 13 3 6 18
11 11 11 11 11 11 12 12 13 14 15 16 17 17 16 16 11 15 1 1 4 4 10 16 14 9 11 2 3 9 2 6 6 10 7 5 4 1 4 11 10 13 20 15 17
12 12 12 12 12 12 12 13 13 14 15 16 17 17 16 15 12 2 0 0 1 5 11 17 17 18 10 13 1 9 7 7 11 6 8 2 2 6 14 1 8 15 17 15 17
12 12 13 13 13 13 13 13 13 14 15 16 17 17 18 7 4 7 7 4 5 8 12 17 14 16 3 3 4 8 5 4 5 6 3 8 1 4 5 7 7 21 28 17 17
13 13 13 13 13 13 13 13 14 14 15 16 16 16 11 9 14 10 8 5 8 10 13 15 12 8 13 5 1 5 3 2 2 4 1 3 3 2 2 4 5 24 15 14 13
13 13 13 13 14 14 14 14 14 15 15 16 15 18 8 14 6 8 10 7 12 11 14 11 12 9 9 5 6 3 2 1 2 4 4 2 3 4 3 7 8 8 12 13 13
14 14 14 14 14 14 15 15 16 16 16 15 13 8 11 15 3 3 7 10 12 10 15 9 7 12 13 12 5 5 11 8 4 4 3 4 4 10 7 7 8 9 8 12 12
15 14 15 14 14 15 15 16 17 17 16 15 10 9 9 11 3 6 9 9 6 9 10 9 8 13 13 9 10 11 8 7 7 1 2 8 9 14 10 8 9 12 9 8 9
15 15 14 14 14 14 15 16 19 16 12 11 7 9 13 3 9 12 11 11 10 10 9 7 9 14 16 14 13 13 6 9 2 6 3 6 6 7 13 11 9 11 14 11 10
15 13 14 13 13 13 16 16 8 13 7 9 11 10 10 11 11 12 11 11 5 8 9 10 10 13 13 12 7 4 11 5 2 2 2 10 10 10 17 12 9 11 14 14 14
15 12 12 12 11 11 14 5 6 7 13 10 13 12 7 7 6 8 10 8 10 8 10 14 11 13 16 14 11 8 8 8 9 3 3 9 12 8 7 14 11 9 12 16 17
13 11 11 10 9 8 8 8 12 10 8 21 17 8 7 7 8 10 11 10 12 12 12 11 12 12 14 9 7 8 9 10 13 2 8 11 15 8 4 6 13 13 10 14 16
12 11 9 8 7 6 12 16 9 11 8 17 16 13 9 8 12 13 13 12 13 10 13 15 9 7 8 9 8 11 11 12 11 9 17 19 16 9 8 3 5 7 14 13 18
12 10 8 5 3 9 10 17 13 8 7 15 13 9 12 10 9 1 12 13 8 10 13 10 13 9 4 10 11 14 4 3 5 9 10 12 6 7 7 10 13 14 13 13 15
12 10 7 10 13 9 6 3 6 5 8 13 13 10 10 14 11 11 7 12 13 10 6 9 6 7 7 12 5 11 5 9 11 10 16 19 14 11 8 6 6 7 2 13 15
12 8 5 7 7 15 5 2 7 8 5 9 10 10 15 14 9 8 8 10 12 9 8 15 4 5 11 4 5 8 12 14 15 14 11 5 6 7 6 6 2 3 2 9 11
11 9 8 9 3 6 5 6 7 10 12 13 11 14 14 12 11 8 10 11 11 11 13 17 15 13 7 9 8 7 12 11 7 10 5 3 9 11 12 6 4 6 6 4 9
9 8 15 9 12 7 6 7 9 16 14 8 13 13 15 10 13 13 14 13 14 10 12 8 11 10 13 9 12 14 12 10 15 2 9 15 4 10 11 9 2 8 10 4 6
2 6 6 9 13 9 8 11 11 9 2 4 10 13 14 13 4 9 10 9 6 12 10 13 7 7 2 5 13 3 7 11 14 11 9 5 9 7 10 7 11 11 11 8 2
5 9 9 12 12 8 8 16 18 7 11 10 9 10 13 13 8 7 12 6 3 3 8 13 8 8 11 1 9 12 14 9 8 7 12 3 7 3 10 14 15 13 14 13 13
6 8 9 10 7 7 10 18 9 4 6 9 13 8 4 10 10 4 9 7 3 5 4 12 12 15 9 8 13 9 11 10 11 11 12 9 7 8 6 10 4 11 15 14 12
7 5 10 10 8 8 12 16 3 4 6 12 8 9 5 3 1 7 8 13 9 9 10 15 9 11 17 19 16 10 11 10 9 13 14 8 5 16 18 11 16 14 13 13 12
7 3 8 9 8 11 16 4 3 7 6 4 6 6 7 7 3 10 5 10 7 8 9 12 6 8 10 14 7 10 11 6 13 9 11 11 3 17 13 8 10 9 7 10 10
7 4 6 8 12 16 11 7 7 3 6 6 7 5 4 8 6 7 4 8 6 6 6 5 10 12 12 18 15 15 15 13 13 11 14 15 18 6 3 9 3 12 10 13 10
6 8 4 9 13 14 10 6 10 7 8 4 4 9 9 5 7 5 9 3 7 10 2 5 10 12 14 16 17 16 16 15 15 15 16 16 18 17 17 12 12 12 7 12 11
7 7 11 11 2 7 1 2 9 4 3 4 6 10 4 6 9 10 11 3 7 9 1 7 9 11 13 15 16 18 15 12 14 14 15 14 10 14 15 14 14 11 9 10 11
9 8 8 7 10 9 3 5 2 8 6 6 10 7 5 11 11 9 11 12 11 8 8 9 9 10 13 14 16 11 11 6 8 6 10 8 10 12 10 10 10 10 4 6 6
Wind_Direction
346 348 344 339 337 334 332 329 329 327 324 323 321 319 317 318 306 237 268 30 328 347 308 277 265 250 246 157 216 21 147 65 60 91 71 185 159 78 273 182 78 29 351 174 146
344 342 339 335 333 331 328 325 325 323 321 321 319 319 319 324 295 270 147 132 20 358 282 301 331 299 268 126 84 133 20 34 24 54 106 103 350 234 85 36 27 19 340 122 166
340 337 334 332 330 328 327 324 322 319 318 317 318 317 317 317 279 250 93 283 335 264 274 293 286 275 262 144 77 44 16 8 60 33 21 78 130 297 117 52 197 161 217 226 179
338 335 331 328 326 325 324 321 319 317 315 314 316 317 312 268 302 95 167 244 237 269 284 273 269 278 285 84 61 108 74 356 350 89 301 59 17 318 65 176 196 174 194 160 174
334 330 325 324 322 320 319 317 315 313 311 311 315 321 316 237 252 130 170 177 225 240 267 288 288 315 318 345 135 62 75 236 141 143 58 112 207 357 3 105 101 168 145 164 179
332 327 324 320 319 317 316 314 311 308 306 307 314 316 248 256 80 149 204 176 241 222 256 261 309 1 300 323 325 60 291 40 4 34 168 271 149 184 148 130 117 137 158 170 169
329 324 321 317 315 314 314 311 307 303 300 299 308 299 264 250 7 268 221 221 217 239 257 263 309 300 311 282 88 287 248 191 83 21 353 341 336 241 119 144 142 160 177 164 175
326 322 318 315 312 311 309 306 302 296 293 288 289 269 261 223 324 226 231 224 249 252 280 328 314 287 284 302 248 233 258 201 132 337 353 277 225 224 154 175 183 165 163 167 189
325 320 315 312 309 307 303 301 296 289 270 278 252 227 259 117 218 234 226 224 204 231 244 282 277 274 279 243 249 224 175 267 120 144 295 309 319 186 160 176 224 171 163 170 178
322 314 313 309 308 308 304 289 289 301 224 234 260 263 260 232 183 199 202 252 219 223 228 232 240 248 234 246 256 161 316 83 324 98 348 305 314 309 156 188 207 189 169 171 172
321 311 307 306 304 310 312 204 203 198 234 234 161 239 132 78 134 205 198 213 243 249 239 213 234 238 248 240 17 6 306 293 290 73 298 272 285 258 244 192 185 209 187 173 180
316 309 305 302 302 311 281 252 11 331 266 219 266 247 301 165 179 194 185 220 220 244 206 253 225 251 279 326 343 295 283 264 265 142 298 286 284 255 267 238 181 183 226 188 182
313 308 302 303 315 258 234 244 342 320 264 176 211 220 192 220 227 178 190 222 254 228 254 247 307 44 305 304 281 253 259 281 312 346 282 255 255 170 156 161 163 230 190 211 185
313 306 294 298 297 215 215 236 251 283 276 153 195 217 185 222 237 150 175 232 234 268 245 265 256 259 231 256 258 261 319 227 317 268 293 303 285 154 148 190 202 211 192 198 184
313 301 270 235 322 234 60 216 219 243 273 149 149 123 180 218 132 187 176 222 269 231 270 237 229 239 244 260 247 272 18 298 284 280 266 268 232 134 182 182 34 353 166 171 168
313 284 239 201 227 264 293 154 224 234 258 147 142 192 197 216 230 126 185 250 256 280 228 273 290 228 242 233 242 279 293 278 246 243 270 243 312 128 139 54 17 27 170 129 152
305 254 223 316 275 187 236 221 224 251 124 148 173 165 189 190 200 162 192 208 239 214 222 213 222 214 212 252 239 239 257 269 234 271 216 116 277 128 134 133 61 129 101 121 129
313 189 213 258 310 268 232 226 254 238 227 130 160 169 209 171 163 190 186 222 218 268 280 269 171 195 172 228 268 220 262 291 293 330 219 222 229 114 128 145 113 124 102 104 168
332 193 239 220 226 267 234 228 236 312 342 136 176 184 218 165 274 199 229 255 88 23 345 318 114 125 245 217 247 299 239 315 314 301 288 38 3 260 110 215 148 108 118 120 81
265 212 181 150 184 227 242 253 286 27 342 314 204 216 211 186 186 194 199 88 46 38 320 312 294 243 154 246 273 271 305 315 300 305 293 287 129 148 318 27 26 96 91 57 48
241 235 127 169 190 232 237 233 247 86 279 279 279 246 163 237 180 276 116 112 77 1 342 304 305 298 281 197 250 216 233 262 284 318 313 306 95 73 343 85 140 34 54 45 36
273 273 144 171 213 232 235 259 20 290 215 274 297 327 272 173 218 231 77 58 41 4 313 330 316 304 303 311 312 286 272 288 294 306 295 311 325 105 99 325 54 48 47 42 27
268 130 161 204 230 216 230 298 272 256 228 236 261 321 5 360 332 320 20 101 56 9 29 357 300 308 286 252 293 266 271 268 297 271 294 300 37 107 58 29 64 75 32 79 42
279 159 154 210 266 282 258 223 197 267 357 336 346 344 288 277 217 281 290 134 95 69 28 317 276 269 282 311 335 322 319 317 308 297 303 297 310 109 225 230 115 61 12 72 41
253 304 90 186 221 255 318 224 216 164 241 279 218 278 320 308 308 270 244 184 174 139 227 244 276 292 308 315 314 304 297 293 282 284 281 293 304 330 45 55 62 49 61 52 33
339 351 336 310 95 336 200 277 268 237 105 302 216 294 17 290 298 332 358 332 284 195 210 270 292 299 281 284 277 276 279 294 288 284 281 286 294 26 39 31 43 33 28 29 27
1 328 298 296 273 210 298 227 251 29 67 333 346 343 293 25 5 3 319 302 292 275 269 287 300 302 288 305 305 288 281 316 342 351 3 330 67 45 22 9 10 345 36 36 22